Location: Unspecified
(0.0000°N, 0.0000°E)
Time: 14:55:38
(UTC+00:00)

Explorer 11/Cluster Stage 4 - All Passes

Search period start: 21 February 2019 00:00
Search period end: 03 March 2019 00:00
Orbit: 467 x 1260 km, 28.8° (Epoch: 20 February)

Date Brightness Start Highest point End Pass type
(mag) Time Alt. Az. Time Alt. Az. Time Alt. Az.
21 Feb - 01:02:05 10° NNW 01:07:09 20° NNE 01:12:39 10° ENE night (unlit)
21 Feb - 02:49:00 10° NW 02:56:42 62° NNE 03:04:53 10° ESE visible
21 Feb - 04:38:30 10° W 04:46:16 46° SSW 04:53:54 10° SE visible
21 Feb - 06:31:42 10° WSW 06:36:09 16° SSW 06:40:25 10° S daylight
21 Feb - 13:55:22 10° SSW 13:58:19 18° SSE 14:01:02 10° ESE daylight
21 Feb - 15:42:58 10° WSW 15:46:38 54° NNW 15:50:10 10° NE daylight
22 Feb - 00:51:14 10° NNW 00:56:33 23° NNE 01:02:27 10° ENE night (unlit)
22 Feb - 02:38:21 10° NW 02:45:58 72° NNE 02:54:15 10° ESE visible
22 Feb - 04:28:05 10° W 04:35:35 40° SSW 04:43:05 10° SE visible
22 Feb - 06:21:52 10° SW 06:25:39 14° SSW 06:29:19 10° S daylight
22 Feb - 13:44:23 10° SSW 13:48:00 25° SSE 13:51:11 10° E daylight
22 Feb - 15:32:40 10° W 15:36:16 38° NNW 15:39:39 10° NE daylight
23 Feb - 00:40:27 10° NNW 00:45:57 26° NNE 00:52:10 10° E night (unlit)
23 Feb - 02:27:46 10° WNW 02:35:14 83° NNE 02:43:34 10° ESE visible
23 Feb - 04:17:44 10° W 04:24:54 34° SSW 04:32:11 10° SE visible
23 Feb - 06:12:16 10° SW 06:15:11 12° SSW 06:18:03 10° S daylight
23 Feb - 13:33:30 10° SW 13:37:39 33° SSE 13:41:12 10° E daylight
23 Feb - 15:22:26 10° W 15:25:52 29° NNW 15:29:04 10° NNE daylight
24 Feb - 00:29:43 10° NNW 00:35:20 29° NNE 00:41:48 10° E night (unlit)
24 Feb - 02:17:13 10° WNW 02:24:31 85° SSW 02:32:49 10° ESE visible
24 Feb - 04:07:31 10° W 04:14:16 30° SSW 04:21:14 10° SSE visible
24 Feb - 06:03:05 10° SSW 06:04:45 11° SSW 06:06:23 10° S daylight
24 Feb - 11:36:23 10° S 11:38:05 11° SSE 11:39:42 10° SE daylight
24 Feb - 13:22:41 10° SW 13:27:17 45° SSE 13:31:07 10° ENE daylight
24 Feb - 15:12:15 10° W 15:15:28 22° NNW 15:18:25 10° NNE daylight
25 Feb - 00:19:02 10° NNW 00:24:41 34° NNE 00:31:22 10° E night (unlit)
25 Feb - 02:06:45 10° WNW 02:13:50 73° SSW 02:22:00 10° SE visible
25 Feb - 03:57:22 10° WSW 04:03:40 26° SSW 04:10:13 10° SSE visible
25 Feb - 11:24:34 10° SSW 11:27:46 15° SSE 11:30:39 10° SE daylight
25 Feb - 13:11:54 10° SW 13:16:53 61° SSE 13:20:57 10° ENE daylight
25 Feb - 15:02:11 10° WNW 15:05:03 18° NNW 15:07:41 10° NNE daylight
26 Feb - 00:08:25 10° NW 00:14:03 39° NNE 00:20:51 10° E night (unlit)
26 Feb - 01:56:22 10° WNW 02:03:10 62° SSW 02:11:08 10° SE visible
26 Feb - 03:47:20 10° WSW 03:53:05 22° SSW 03:59:09 10° SSE visible
26 Feb - 11:13:11 10° SSW 11:17:26 19° SSE 11:21:06 10° ESE daylight
26 Feb - 13:01:10 10° WSW 13:06:29 81° SSE 13:10:42 10° ENE daylight
26 Feb - 14:52:14 10° WNW 14:54:38 15° NNW 14:56:51 10° N daylight
26 Feb - 23:57:51 10° NW 00:03:25 46° NNE 00:10:16 10° ESE night (unlit)
27 Feb - 01:46:02 10° WNW 01:52:32 52° SSW 02:00:13 10° SE visible
27 Feb - 03:37:26 10° WSW 03:42:34 19° SSW 03:47:59 10° SSE visible
27 Feb - 11:01:58 10° SSW 11:07:03 24° SSE 11:11:19 10° ESE daylight
27 Feb - 12:50:29 10° WSW 12:56:01 79° NNW 13:00:24 10° NE daylight
27 Feb - 14:42:31 10° NW 14:44:12 12° NNW 14:45:47 10° N daylight
27 Feb - 22:02:36 10° NNE 22:04:13 11° NNE 22:05:55 10° NE night (unlit)
27 Feb - 23:47:20 10° NW 23:52:48 54° NNE 23:59:39 10° ESE night (unlit)
28 Feb - 01:35:48 10° W 01:41:56 43° SSW 01:49:14 10° SE visible
28 Feb - 03:27:42 10° SW 03:32:05 16° SSW 03:36:42 10° SSE visible
28 Feb - 09:04:35 10° S 09:06:32 11° SSE 09:08:25 10° SSE daylight
28 Feb - 10:50:51 10° SW 10:56:37 31° SSE 11:01:24 10° E daylight
28 Feb - 12:39:50 10° WSW 12:45:32 62° NNW 12:50:02 10° NE daylight
28 Feb - 21:51:27 10° N 21:53:45 13° NNE 21:56:15 10° ENE night (unlit)
28 Feb - 23:36:52 10° NW 23:42:13 65° NNE 23:48:58 10° ESE night (unlit)
01 Mar - 01:25:38 10° W 01:31:23 36° SSW 01:38:13 10° SE night (unlit)
01 Mar - 03:18:11 10° SW 03:21:39 13° SSW 03:25:15 10° S visible
01 Mar - 08:52:37 10° S 08:56:10 14° SSE 08:59:28 10° SE daylight
01 Mar - 10:39:47 10° SW 10:46:10 38° SSE 10:51:21 10° E daylight
01 Mar - 12:29:13 10° WSW 12:35:01 50° NNW 12:39:37 10° NE daylight
01 Mar - 21:40:31 10° N 21:43:16 15° NNE 21:46:19 10° ENE night (unlit)
01 Mar - 23:26:28 10° NW 23:31:39 79° NNE 23:38:15 10° ESE night (unlit)
02 Mar - 01:15:35 10° W 01:20:53 29° SSW 01:27:08 10° SSE night (unlit)
02 Mar - 03:09:08 10° SSW 03:11:15 11° SSW 03:13:25 10° S visible
02 Mar - 08:41:08 10° SSW 08:45:45 17° SSE 08:50:00 10° ESE daylight
02 Mar - 10:28:47 10° SW 10:35:40 47° SSE 10:41:13 10° E daylight
02 Mar - 12:18:38 10° WSW 12:24:27 41° NNW 12:29:08 10° NE daylight
02 Mar - 21:29:44 10° N 21:32:46 18° NNE 21:36:15 10° ENE night (unlit)
02 Mar - 23:16:08 10° WNW 23:21:06 84° SSW 23:27:29 10° ESE night (unlit)
